Wind_Speed
9 8 7 6 6 5 5 5 4 4 4 3 3 4 4 4 5 5 6 5 7 7 7 7 7 8 9 10 10 10 9 9 9 10 10 9 9 8 8 7 7 6 6
9 8 7 6 5 5 5 4 4 3 3 3 3 3 3 3 4 4 4 4 5 6 7 6 6 7 8 9 10 10 11 10 10 10 11 11 10 9 9 9 9 8 8
9 8 7 6 5 5 4 4 3 3 3 3 3 2 3 3 3 4 4 4 5 6 6 6 5 5 6 8 9 10 11 11 10 11 11 12 11 11 10 10 10 10 10
9 8 7 6 5 4 4 4 3 2 2 2 2 2 2 3 3 3 3 4 4 4 5 5 5 5 5 6 7 9 10 11 11 11 12 12 12 12 12 12 12 12 12
10 8 8 6 5 4 4 3 2 2 2 1 1 1 2 2 2 2 2 2 3 3 4 4 4 5 5 6 5 7 8 9 10 11 12 13 14 13 13 12 12 12 12
11 9 8 7 5 4 4 3 3 2 2 1 1 1 2 1 2 2 2 2 2 3 3 3 3 4 4 5 5 6 7 7 8 9 10 11 12 13 13 13 13 13 13
11 10 9 7 6 5 4 3 3 2 1 1 1 1 1 1 0 1 1 1 2 2 3 3 3 3 4 5 4 5 6 7 8 8 8 10 12 12 13 14 14 14 14
12 10 9 8 6 5 5 4 3 3 2 1 1 1 1 1 0 1 1 2 2 3 3 3 3 4 5 4 4 4 5 5 6 6 6 7 9 11 12 13 13 13 14
13 12 10 9 8 7 6 5 4 4 3 2 1 1 1 1 1 1 1 2 2 3 3 4 4 4 4 5 4 4 5 5 6 6 6 7 7 9 10 10 11 13 14
14 13 11 10 9 9 8 7 6 5 4 3 2 2 2 2 1 2 2 2 3 3 4 4 4 5 5 5 5 5 5 6 6 6 7 7 7 8 9 10 10 11 13
16 14 13 12 12 11 9 8 8 7 6 5 4 4 4 3 3 3 3 4 4 5 5 5 5 5 6 6 6 7 7 7 8 8 8 9 9 9 10 10 11 12 13
16 15 14 14 13 12 11 10 10 9 8 8 7 7 6 6 6 6 6 6 6 7 7 7 7 8 7 8 8 9 9 10 10 11 11 11 11 12 12 12 13 13 14
16 15 15 16 15 14 13 13 12 11 11 10 10 10 10 10 10 10 10 10 10 10 10 10 11 11 11 11 11 12 12 13 13 14 14 15 15 15 15 16 16 16 16
17 17 17 16 16 16 15 15 14 14 14 14 13 13 13 13 13 13 14 14 14 14 14 14 14 15 15 15 16 16 17 17 17 18 18 18 19 19 19 19 19 19 19
18 18 18 17 17 17 17 17 16 16 16 17 17 17 17 17 17 17 17 18 18 18 18 18 18 19 20 20 21 21 21 22 22 22 22 22 23 23 23 23 23 23 23
19 19 20 19 19 18 18 18 18 18 19 19 19 20 20 20 21 21 21 22 22 23 23 23 23 23 24 25 25 25 26 26 27 27 27 27 27 27 27 27 27 27 27
19 20 21 21 21 21 20 20 20 20 20 21 21 22 23 24 24 24 24 25 25 26 27 28 28 28 28 29 29 30 30 30 30 31 31 32 32 32 31 31 31 31 31
19 20 21 21 22 22 22 22 22 22 22 22 23 24 25 26 26 27 27 27 28 28 29 30 31 32 32 33 33 34 34 34 34 34 35 35 36 36 36 36 36 36 36
18 19 20 21 21 22 22 22 22 22 23 24 25 25 26 27 28 28 29 29 30 31 32 32 34 35 35 36 36 37 37 37 37 38 39 39 39 40 40 40 41 41 41
17 19 20 20 21 21 22 23 23 24 24 25 26 27 27 28 29 30 30 32 33 34 35 35 36 37 39 39 39 39 40 41 41 42 42 42 42 43 43 43 44 44 45
16 18 19 19 20 21 22 23 24 25 26 26 27 27 28 29 30 31 32 33 35 36 37 38 39 39 40 41 42 43 43 44 45 46 46 46 46 46 46 46 46 47 48
16 18 19 20 20 20 22 24 25 26 27 27 28 28 29 30 32 33 34 36 37 38 40 41 42 43 44 45 46 47 48 48 48 49 51 51 52 51 50 50 50 50 50
18 18 19 19 21 22 23 25 26 27 28 30 30 31 32 33 34 36 38 38 40 42 43 44 45 46 47 48 49 50 51 51 51 52 54 53 54 55 55 54 54 54 54
20 21 21 23 23 24 25 26 27 28 30 31 32 34 35 36 38 38 40 41 42 43 44 46 47 48 50 51 52 53 53 54 54 55 57 57 56 56 56 56 56 57 57
22 23 24 26 26 27 27 28 29 30 32 33 34 36 37 38 39 40 41 43 44 45 47 48 49 51 52 53 54 56 56 57 58 58 60 61 61 61 60 59 59 60 60
26 27 27 28 29 29 30 31 32 33 34 36 37 38 40 41 42 43 45 46 47 49 50 51 53 54 55 57 58 60 61 62 62 63 63 64 65 65 64 63 63 63 62
Wind_Direction
244 247 263 272 278 283 285 285 282 278 276 274 280 280 277 272 266 272 275 265 256 254 260 258 256 249 243 239 238 238 242 240 235 235 234 235 237 241 247 248 251 254 257
244 252 266 274 282 287 285 282 278 275 277 276 278 277 279 278 280 290 275 265 261 259 261 262 261 253 247 245 244 243 243 243 242 241 242 241 243 245 249 253 255 256 258
245 251 259 267 278 285 283 277 275 279 282 277 276 280 283 288 294 295 278 266 265 268 260 259 262 259 259 256 250 249 245 243 249 249 248 246 246 247 251 254 255 257 258
238 246 254 260 270 277 277 274 275 274 274 275 279 286 291 295 300 302 279 271 277 287 277 263 261 261 269 263 258 253 251 251 253 254 254 250 249 250 252 255 256 258 258
236 244 249 255 261 270 268 261 254 251 265 285 306 310 310 309 314 319 305 293 296 294 296 284 269 271 279 272 268 262 259 261 261 257 257 254 252 252 253 255 257 259 259
233 237 245 248 248 252 256 250 237 242 261 281 299 312 322 336 334 333 328 324 320 304 309 304 286 281 287 282 272 268 265 265 270 268 264 258 257 255 255 256 259 260 260
231 232 238 240 238 237 240 242 230 233 248 275 293 307 328 345 1 351 339 326 326 329 327 322 311 301 306 293 283 277 277 273 278 280 278 268 264 263 259 259 261 260 260
227 228 231 233 233 232 234 235 230 231 239 253 297 331 329 345 33 26 6 339 337 341 336 331 326 334 337 321 295 291 290 293 295 292 291 289 276 267 265 263 262 263 262
222 223 227 230 232 232 231 231 231 228 232 236 242 281 321 322 326 350 1 346 344 344 343 345 347 342 342 343 321 304 305 305 301 300 305 308 300 285 273 268 269 269 266
218 223 226 228 230 230 230 231 234 233 236 238 246 262 281 296 319 322 329 327 329 328 329 336 339 346 345 345 339 320 312 305 300 300 303 307 305 299 289 282 280 277 273
219 224 226 228 229 231 230 232 237 240 241 244 251 261 274 283 293 299 303 308 312 313 316 319 321 322 322 318 319 317 314 308 305 303 303 302 301 299 295 292 289 285 281
220 223 225 228 230 232 233 236 239 243 245 248 253 260 269 276 282 285 288 292 295 297 299 301 303 306 306 305 304 305 305 304 302 301 299 298 297 297 295 294 292 289 287
222 226 228 229 230 233 236 239 242 247 249 252 256 261 267 273 277 280 282 284 285 288 290 292 294 296 297 297 298 298 298 298 298 297 295 295 294 294 292 291 289 289 288
226 230 231 230 233 236 239 241 244 248 251 253 257 261 266 270 274 277 279 281 282 283 284 285 287 288 290 292 293 293 293 293 293 293 292 292 291 291 290 289 288 287 286
228 231 234 235 237 240 242 244 246 250 254 257 259 262 265 269 272 275 277 279 281 281 281 281 283 284 286 287 288 289 289 290 290 290 290 290 289 288 288 288 287 286 285
231 233 235 238 240 242 244 247 250 253 256 259 261 265 268 270 271 273 276 278 280 281 283 282 282 283 284 285 286 286 287 287 287 287 287 286 286 286 286 285 285 284 283
236 238 238 240 243 245 248 251 254 257 259 261 263 266 269 270 272 273 275 277 279 281 282 283 283 283 283 283 283 284 284 284 285 285 285 284 284 284 283 283 282 282 281
239 239 240 242 245 247 250 253 256 259 261 263 265 268 270 272 273 273 275 276 278 280 281 282 283 283 283 283 284 284 284 283 283 282 282 283 283 282 281 281 280 280 279
239 241 244 246 249 250 252 254 258 261 263 265 268 271 273 275 275 275 276 277 279 280 281 282 283 284 284 283 284 284 284 283 282 282 281 281 281 280 279 279 279 278 278
247 248 248 250 252 251 253 255 259 263 266 269 271 274 275 276 276 277 277 278 279 281 282 283 284 284 284 284 284 284 284 283 283 283 283 283 282 280 279 278 277 277 277
255 254 253 254 255 256 258 259 262 267 271 274 275 276 277 279 279 279 279 279 281 282 282 283 284 284 284 284 284 284 284 283 283 282 282 282 281 281 280 278 277 277 277
261 260 260 261 261 261 263 264 266 270 273 275 277 278 279 280 281 281 281 281 281 282 283 283 284 284 285 285 284 284 283 283 282 281 281 281 281 281 280 279 278 278 277
264 263 263 263 265 268 267 267 269 272 274 277 278 279 280 282 283 284 284 283 282 283 283 284 285 285 285 285 285 284 284 284 283 282 281 281 281 280 279 279 278 278 276
267 266 266 267 269 271 271 271 273 275 277 279 280 282 283 283 284 284 285 285 285 284 284 285 286 286 286 287 286 285 285 285 284 284 282 282 281 280 280 279 278 277 276
270 270 270 270 271 273 275 276 277 278 280 282 283 284 285 285 286 286 286 287 287 287 287 286 286 287 287 287 287 287 286 286 285 284 283 283 282 282 281 281 279 278 277
273 272 273 273 274 275 277 278 279 280 281 283 285 285 286 287 288 288 288 289 289 289 289 289 288 288 287 287 287 287 287 286 286 285 284 284 283 282 281 280 279 278 277
Height
5882 5883 5883 5883 5883 5884 5884 5884 5884 5884 5884 5884 5884 5884 5884 5884 5884 5885 5885 5885 5886 5887 5888 5888 5889 5890 5891 5892 5894 5895 5896 5897 5898 5899 5900 5901 5902 5903 5903 5904 5905 5905 5906
5881 5882 5882 5882 5883 5883 5883 5883 5883 5883 5883 5883 5883 5883 5883 5884 5884 5884 5884 5884 5885 5886 5887 5888 5888 5889 5890 5891 5892 5893 5894 5895 5896 5897 5898 5899 5900 5901 5902 5903 5903 5904 5904
5879 5880 5881 5882 5882 5882 5882 5882 5882 5882 5882 5883 5883 5883 5883 5883 5883 5884 5884 5884 5885 5885 5886 5887 5887 5888 5889 5889 5890 5891 5892 5893 5894 5895 5896 5897 5898 5899 5900 5900 5901 5902 5902
5878 5879 5880 5881 5881 5881 5881 5881 5882 5882 5882 5882 5882 5882 5882 5883 5883 5883 5883 5883 5884 5885 5885 5885 5886 5887 5887 5888 5888 5889 5890 5891 5892 5893 5894 5895 5895 5896 5897 5898 5899 5899 5900
5877 5878 5879 5880 5880 5880 5881 5881 5881 5882 5882 5881 5882 5882 5882 5882 5883 5883 5883 5883 5884 5884 5884 5885 5885 5886 5886 5887 5887 5887 5888 5889 5890 5890 5891 5892 5893 5894 5894 5895 5896 5897 5897
5875 5876 5878 5879 5879 5880 5880 5881 5881 5881 5881 5881 5881 5882 5882 5882 5882 5882 5882 5883 5883 5884 5884 5884 5884 5885 5885 5885 5886 5886 5887 5887 5888 5888 5889 5889 5890 5891 5892 5892 5893 5894 5894
5873 5875 5877 5877 5878 5879 5880 5880 5881 5881 5881 5881 5881 5881 5882 5881 5882 5882 5882 5883 5883 5883 5884 5884 5884 5884 5884 5884 5884 5885 5886 5886 5886 5886 5886 5887 5887 5888 5889 5889 5890 5891 5891
5871 5873 5875 5876 5877 5878 5879 5880 5880 5880 5881 5881 5881 5881 5882 5882 5882 5882 5882 5882 5883 5883 5883 5883 5883 5883 5883 5883 5884 5884 5884 5884 5884 5885 5885 5885 5885 5885 5886 5886 5887 5888 5888
5869 5871 5873 5875 5876 5877 5878 5879 5879 5880 5880 5880 5881 5881 5882 5882 5882 5882 5882 5882 5882 5883 5883 5883 5883 5883 5883 5883 5883 5883 5883 5883 5883 5883 5883 5883 5883 5883 5883 5884 5884 5885 5885
5866 5869 5871 5873 5874 5875 5877 5877 5878 5879 5879 5880 5880 5880 5881 5881 5881 5881 5882 5881 5882 5882 5882 5882 5882 5882 5882 5882 5882 5882 5882 5882 5882 5882 5882 5882 5881 5881 5881 5881 5881 5881 5882
5864 5866 5869 5870 5872 5874 5875 5876 5877 5877 5878 5879 5879 5880 5880 5880 5880 5880 5881 5881 5881 5881 5881 5881 5881 5881 5881 5881 5881 5881 5881 5881 5881 5880 5880 5880 5880 5879 5879 5879 5879 5878 5878
5861 5864 5866 5868 5870 5871 5873 5874 5875 5876 5876 5877 5878 5878 5878 5879 5879 5879 5879 5879 5879 5879 5879 5880 5880 5880 5880 5879 5879 5879 5879 5878 5878 5878 5878 5878 5877 5877 5877 5876 5876 5875 5875
5858 5861 5863 5865 5867 5869 5870 5871 5873 5873 5874 5875 5876 5876 5876 5877 5877 5877 5877 5877 5877 5877 5877 5877 5877 5877 5877 5877 5876 5876 5876 5876 5875 5875 5875 5874 5874 5874 5873 5873 5872 5872 5871
5855 5858 5860 5862 5864 5866 5867 5869 5870 5871 5871 5872 5873 5873 5874 5874 5874 5874 5875 5875 5875 5875 5875 5875 5874 5874 5874 5874 5873 5873 5873 5872 5872 5871 5871 5870 5870 5869 5869 5868 5868 5867 5867
5852 5855 5857 5859 5861 5862 5864 5865 5866 5867 5868 5869 5869 5870 5870 5871 5871 5871 5871 5871 5871 5871 5871 5871 5871 5870 5870 5869 5869 5868 5868 5868 5867 5866 5866 5865 5865 5864 5864 5863 5862 5862 5861
5848 5851 5853 5855 5857 5859 5860 5862 5863 5864 5864 5865 5866 5866 5866 5867 5867 5867 5867 5866 5866 5866 5866 5866 5866 5865 5865 5864 5864 5863 5862 5862 5861 5860 5860 5859 5858 5858 5857 5856 5856 5855 5855
5844 5847 5849 5851 5853 5855 5856 5857 5858 5859 5860 5860 5861 5861 5861 5861 5862 5862 5861 5861 5861 5861 5860 5859 5859 5859 5858 5857 5857 5856 5855 5855 5854 5853 5852 5851 5851 5850 5849 5849 5848 5847 5847
5840 5843 5845 5847 5849 5850 5852 5853 5854 5854 5855 5855 5856 5856 5856 5856 5856 5856 5855 5855 5855 5854 5854 5853 5852 5851 5851 5849 5849 5848 5847 5846 5846 5845 5844 5843 5842 5841 5840 5839 5839 5838 5837
5837 5839 5841 5842 5844 5845 5846 5847 5848 5849 5850 5850 5850 5850 5850 5850 5849 5849 5848 5848 5847 5847 5846 5845 5844 5842 5842 5841 5840 5839 5837 5836 5836 5835 5834 5833 5832 5831 5830 5829 5828 5827 5826
5833 5835 5836 5837 5838 5840 5841 5842 5843 5844 5844 5844 5844 5844 5844 5843 5842 5842 5841 5841 5840 5839 5838 5837 5835 5834 5832 5831 5830 5829 5828 5826 5825 5823 5822 5821 5820 5819 5818 5817 5816 5815 5814
5830 5831 5832 5833 5833 5835 5836 5836 5837 5838 5838 5838 5837 5837 5837 5836 5835 5834 5834 5833 5831 5830 5829 5827 5826 5824 5822 5821 5819 5818 5816 5815 5813 5811 5810 5809 5808 5806 5805 5803 5801 5800 5800
5826 5827 5827 5828 5829 5829 5830 5831 5831 5831 5831 5831 5830 5830 5829 5828 5827 5826 5825 5823 5822 5821 5819 5817 5815 5813 5811 5809 5807 5805 5803 5802 5801 5799 5796 5795 5793 5792 5790 5789 5787 5785 5784
5822 5823 5823 5824 5824 5824 5824 5825 5825 5824 5824 5823 5823 5822 5821 5820 5818 5817 5815 5813 5812 5810 5808 5806 5804 5801 5799 5797 5794 5792 5789 5787 5785 5783 5781 5780 5778 5776 5774 5772 5771 5769 5768
5817 5818 5818 5818 5818 5818 5818 5818 5817 5817 5816 5815 5814 5813 5812 5810 5808 5806 5804 5803 5800 5798 5796 5793 5791 5788 5785 5782 5779 5777 5774 5772 5770 5767 5763 5762 5761 5759 5758 5755 5753 5751 5750
5812 5812 5812 5812 5811 5811 5810 5810 5809 5809 5807 5806 5805 5803 5802 5800 5798 5796 5793 5791 5788 5785 5782 5780 5777 5774 5770 5767 5763 5761 5758 5755 5753 5750 5746 5743 5742 5741 5740 5738 5735 5733 5731
5806 5806 5805 5804 5804 5803 5803 5802 5801 5799 5798 5797 5795 5793 5791 5789 5786 5783 5781 5778 5775 5772 5768 5765 5762 5758 5754 5751 5747 5744 5740 5737 5734 5731 5727 5723 5721 5719 5720 5719 5715 5712 5710